Location: *
(2.5500°S, 65.9667°W)
Time: 03:43:09
(UTC+00:00)

Tiros 1 - All Passes

Search period start: 22 April 2024 00:00
Search period end: 02 May 2024 00:00
Orbit: 625 x 657 km, 48.4° (Epoch: 21 April)

Date Brightness Start Highest point End Pass type
(mag) Time Alt. Az. Time Alt. Az. Time Alt. Az.
22 Apr - 00:33:10 10° SW 00:37:56 77° NW 00:42:37 10° NE visible
22 Apr - 12:46:21 10° NW 12:50:54 65° SW 12:55:30 10° SSE daylight
22 Apr - 23:16:03 10° S 23:20:03 27° SE 23:24:02 10° ENE visible
23 Apr - 00:58:09 10° WSW 01:01:57 24° NW 01:05:44 10° N visible
23 Apr - 11:29:06 10° N 11:33:06 30° NE 11:37:08 10° ESE daylight
23 Apr - 13:11:35 10° W 13:14:59 20° SW 13:18:26 10° S daylight
23 Apr - 23:39:21 10° SW 23:44:07 85° SE 23:48:51 10° NE visible
24 Apr - 11:52:31 10° NW 11:57:06 81° SW 12:01:44 10° SE daylight
24 Apr - 22:22:32 10° S 22:26:13 22° SE 22:29:52 10° E daylight
25 Apr - 00:04:00 10° WSW 00:08:08 29° NW 00:12:14 10° N visible
25 Apr - 10:35:35 10° N 10:39:17 24° NE 10:43:00 10° ESE daylight
25 Apr - 12:17:24 10° WNW 12:21:09 25° SW 12:24:58 10° S daylight
25 Apr - 22:45:32 10° SSW 22:50:17 68° SE 22:54:59 10° NE visible
26 Apr - 10:58:42 10° NW 11:03:17 80° NE 11:07:54 10° SE daylight
26 Apr - 21:29:06 10° S 21:32:21 18° SE 21:35:34 10° E daylight
26 Apr - 23:09:54 10° WSW 23:14:17 36° NW 23:18:38 10° NNE visible
27 Apr - 09:42:09 10° N 09:45:26 19° NE 09:48:45 10° E visible
27 Apr - 11:23:16 10° WNW 11:27:18 30° SW 11:31:23 10° SSE daylight
27 Apr - 21:51:45 10° SSW 21:56:26 54° SE 22:01:03 10° NE daylight
27 Apr - 23:36:32 10° WNW 23:38:19 12° NW 23:40:07 10° NNW visible
28 Apr - 10:04:55 10° NNW 10:09:27 63° NE 10:14:00 10° SE daylight
28 Apr - 20:35:48 10° SSE 20:38:27 15° SE 20:41:04 10° E daylight
28 Apr - 22:15:51 10° SW 22:20:25 45° NW 22:24:57 10° NNE daylight
29 Apr - 08:48:49 10° NNE 08:51:35 16° NE 08:54:21 10° E visible
29 Apr - 10:29:12 10° WNW 10:33:26 38° SW 10:37:43 10° SSE daylight
29 Apr - 20:58:00 10° SSW 21:02:32 43° SE 21:07:02 10° ENE daylight
29 Apr - 22:41:44 10° W 22:44:25 15° NW 22:47:08 10° NNW visible
30 Apr - 09:11:10 10° NNW 09:15:35 50° NE 09:20:02 10° SE visible
30 Apr - 10:55:37 10° WSW 10:57:33 12° SW 10:59:29 10° SSW daylight
30 Apr - 19:42:47 10° SSE 19:44:31 12° SE 19:46:15 10° ESE daylight
30 Apr - 21:21:50 10° SW 21:26:31 57° NW 21:31:11 10° NNE daylight
01 May - 07:55:43 10° NNE 07:57:41 13° NE 07:59:40 10° ENE visible
01 May - 09:35:09 10° NW 09:39:33 47° SW 09:43:59 10° SSE visible
01 May - 20:04:17 10° SSW 20:08:38 35° SE 20:12:58 10° ENE daylight
01 May - 21:47:13 10° W 21:50:31 19° NW 21:53:48 10° N daylight
